Terug naar catalogus

GALILEO 19

2C5

ActiefNavigatieMEO
NORAD 43055·PAYLOAD·🇪🇺 EU

Gelanceerd Dec 12, 2017 vanaf Guiana Space Centre

Loading…

Volgende Passages (komende 24 uur)

TLE

VersSource: CelesTrak SupGP

Epoch: Sep 13, 2026, 23:59 UTC

1 43055C 17079A   26256.99979167  .00000000  00000+0  00000+0 0  2563
2 43055  55.0533 219.0638 0003310 283.9900 327.8595  1.70474024    16

Volg GALILEO 19 in realtime met AllMySat

Download on the App Store